User: anonymous   Login
Location: Unspecified
(0.0000°N, 0.0000°E)
Time: 05:26:12
(UTC+00:00)
Language:

OFEQ 10 - Orbit

View from above orbital plane
View from above orbital plane
View from above satellite
View from above satellite

Ground track
Ground track

The orbit data is extracted from the following two-line orbital elements,

1 39650U 14019A   17171.82987404 0.00000000  00000-0  00000-0 0    00
2 39650 140.9209 344.7360 0001996  32.0465 327.9527 15.16833737    01
Epoch (UTC): 20 June 2017 19:55:01
Eccentricity: 0.0001996
inclination: 140.9209°
perigee height: 514 km
apogee height: 517 km
right ascension of ascending node: 344.7360°
argument of perigee: 32.0465°
revolutions per day: 15.16833737
mean anomaly at epoch: 327.9527°
orbit number at epoch: 0

The dashed part of the orbit path shows where the satellite is in the earth's shadow,  

DLR